STARLINK-36179, 67119

Orbit data source: Space-Track

STARLINK-36179, 67119 is a payload satellite owned by SpaceX/Seattle (US) in LEO that was launched on Mon, 15 Dec 2025 UTC via an FALCON 9 launch vehicle from the Air Force Eastern Test Range (AFETR). Payload-class satellites include a variety of spacecraft equipped with specific instruments for various scientific and technological missions. These include communications satellites like Starlink; space stations such as the ISS; scientific satellites like the Hubble; Earth observation satellites from companies like Planet Labs, Umbra, and HawkEye 360; GPS; miniature CubeSats for education and research; and military/defense satellites.

Not visible in the next 10 days
Identifier
67119, 2025-299T
Orbit
LEO
Country
Flag of USUS
Related business
Manufacturer
SpaceX/Seattle
Mission
Operational spacecraft
Bus & Motor
STARLINK V2MO, Unknown motor
Mass
575 kg wet, ~530 kg dry
Launch date (UTC)
2025-12-15 (1 week ago)
Launch vehicle
FALCON 9
Launch site
Air Force Eastern Test Range (AFETR)
Object type
Payload
Rocket body
Debris
Shape & HBR
Unknown
Radar Cross Section
RCS unknown

Expand to show TLE details & history
Last TLE update: 9 hours ago

TLE from 9 hours ago
0 STARLINK-36179
1 67119U 25299T   25355.25001157 -.01416687  59695-3 -32628-2 0  9997
2 67119  42.9994 264.7696 0002566 273.7742  69.9923 15.96402200  2182
Epoch: 2025-12-21T06:00Z
TLE epoch observation values (Epoch: 2025-12-21T06:00:00.999Z)
Latitude
-11.09468°
Longitude
72.63069°
Altitude
285.689 km
Speed
7.738 km/s
True Right ascension
16h 50m 48s
True Declination
-11° 01' 31"
Sunlit
Object was in daylight at epoch
Visualization orbit readout
Latitude
Unknown
Longitude
Unknown
Altitude
Unknown
Speed
Unknown
Apparent Right ascension
Unknown
Apparent Declination
Unknown
Sunlit
N/A
Visualization observer readout
Local Sidereal Time
13:56:42
Azimuth
Unknown
Elevation
Unknown
Doppler factor
Unknown
Orbital elements
Apogee altitude
288.123 km
Perigee altitude
284.703 km
Semi-major axis
6,664.55 km
Eccentricity
0.00026
Inclination
42.9994°
RAAN
264.7696°
Arg. of periapsis
273.7742°
True anomaly
70.01993°
Mean anomaly
69.9923°
Eccentric anomaly
70.00612°
Mean motion
3.98921 °/min
Orbital period
90.24 mins
BSTAR
-0.0032628
Loading maneuver chart data...
Computing Atmospheric mass density...
Loading historical data...
Loading historical data...
Loading historical data...
Loading historical data...
Loading historical data...
Loading historical data...
Loading historical data...

Documentation

Showing up to 5 results
|